Content
SEND FEEDBACK

Daily
Averages
Monthly
Summary
United States of America

NEW YORK - CENTRAL PARK, NEW YORK


Home > North America > United States > New York
Elevation: 14 feet     Latitude: 40 47N     Longitude: 073 58W

WEATHER
 
SELECT A DAY
Number of Records: 147,991;   Date Range: 11/1/95 - 7/20/14
 
SHARE

PRINT THIS DATA

[ ← Previous Day ]
WEATHER ALMANAC - JULY 14, 2013
[ Next Day → ]
[ °C ]   °F
Weather ElementAverageHighLow
Temperature80 °F88 °F (3:51 pm)73.4 °F (3:46 am)
Dewpoint71.3 °F73.9 °F (9:05 am)66.9 °F (7:51 pm)
Humidity76.4 %97 % (2:51 am)51 % (4:51 pm)
Barometer30.31 in30.37 in (7:40 am)30.24 in (5:51 pm)
Wind Speed3.6 mph8.1 mph (10:48 am)
Weather ElementAverage
Visibility7.4 mi
Wind DirectionENE (83.1 °)

Weather ElementTotal
Precipitation0.02 in
Cooling Degree Days15.7 (Base 65)
Growing Degree Days30.7 (Base 50)
Averaged from 36 records on July 14, 2013
WEATHER CONDITIONS BREAKOUT
WIND DIRECTION BREAKOUT
WEATHER BY HOUR - JULY 14, 2013
[ °C ]   °F
Local TimeTemperatureDewpointHumidityBarometerVisibilityWind DirectionWind SpeedGust SpeedPrecipitationEventsConditions
12:43 AM73.9 °F72.0 °F93 %30.31 in5.0 miEast (100°)3.5 mph0.01 inMostly Cloudy
12:51 AM73.9 °F72.0 °F93 %30.29 in5.0 miCalm0.01 inMostly Cloudy
1:51 AM75.0 °F73.0 °F94 %30.30 in6.0 miNE (50°)3.5 mphOvercast
2:51 AM73.9 °F73.0 °F97 %30.30 in5.0 miSE (140°)3.5 mphOvercast
3:21 AM73.9 °F72.0 °F93 %30.33 in5.0 miCalmMostly Cloudy
3:46 AM73.4 °F71.6 °F94 %30.33 in5.0 miCalmMostly Cloudy
3:51 AM73.9 °F72.0 °F93 %30.30 in5.0 miCalmMostly Cloudy
4:06 AM73.9 °F72.0 °F93 %30.33 in4.0 miNorth (360°)3.5 mphMostly Cloudy
4:17 AM73.9 °F72.0 °F93 %30.33 in5.0 miCalmOvercast
4:46 AM73.4 °F71.6 °F94 %30.33 in5.0 miCalmPartly Cloudy
4:51 AM73.9 °F72.0 °F93 %30.31 in5.0 miCalmPartly Cloudy
5:51 AM73.9 °F72.0 °F93 %30.31 in5.0 miCalmClear
6:51 AM75.9 °F73.0 °F91 %30.32 in6.0 miWest (260°)5.8 mphPartly Cloudy
7:40 AM77.0 °F73.0 °F88 %30.37 in7.0 miWSW (250°)6.9 mphMostly Cloudy
7:51 AM77.0 °F73.0 °F88 %30.34 in7.0 miWSW (250°)4.6 mphMostly Cloudy
8:51 AM78.1 °F73.0 °F84 %30.34 in7.0 miVariable4.6 mphScattered Clouds
9:05 AM79.0 °F73.9 °F84 %30.36 in7.0 miCalmMostly Cloudy
9:16 AM79.0 °F73.0 °F82 %30.36 in8.0 miVariable3.5 mphMostly Cloudy
9:24 AM79.0 °F73.9 °F84 %30.36 in8.0 miWest (270°)6.9 mphScattered Clouds
9:51 AM81.0 °F73.0 °F77 %30.32 in8.0 miVariable4.6 mphPartly Cloudy
10:48 AM82.4 °F71.6 °F70 %30.35 in9.0 miWest (280°)8.1 mphMostly Cloudy
10:51 AM82.0 °F72.0 °F71 %30.32 in9.0 miWest (270°)8.1 mphMostly Cloudy
10:58 AM82.9 °F71.1 °F67 %30.35 in9.0 miVariable4.6 mphScattered Clouds
11:51 AM86.0 °F73.9 °F67 %30.32 in9.0 miVariable3.5 mphMostly Cloudy
12:51 PM87.1 °F73.0 °F63 %30.30 in9.0 miWSW (240°)3.5 mphScattered Clouds
1:51 PM87.1 °F71.1 °F59 %30.29 in9.0 miVariable3.5 mphMostly Cloudy
2:51 PM86.0 °F70.0 °F59 %30.28 in9.0 miCalmMostly Cloudy
3:51 PM88.0 °F71.1 °F57 %30.26 in9.0 miWest (270°)6.9 mphPartly Cloudy
4:51 PM88.0 °F68.0 °F51 %30.25 in9.0 miVariable5.8 mphPartly Cloudy
5:51 PM88.0 °F68.0 °F51 %30.24 in9.0 miVariable6.9 mphClear
6:51 PM87.1 °F69.1 °F55 %30.24 in9.0 miVariable4.6 mphPartly Cloudy
7:51 PM86.0 °F66.9 °F53 %30.24 in9.0 miVariable4.6 mphClear
8:51 PM86.0 °F66.9 °F53 %30.24 in10.0 miVariable3.5 mphClear
9:51 PM84.0 °F66.9 °F56 %30.25 in10.0 miVariable5.8 mphClear
10:51 PM84.0 °F66.9 °F56 %30.26 in10.0 miWSW (250°)4.6 mphClear
11:51 PM82.9 °F68.0 °F60 %30.25 in10.0 miVariable3.5 mphClear
Hourly data recorded from KNYC, located miles away from New York - Central Park, New York







STORIES FROM OUR PARTNERS